This is the latest recevied weather packets stored in our database for station/object KE0QIB. If no packets are shown the sender has not sent any weather packets the latest 10 day(s).
| Time | Temp. | Humidity | Pressure | Rain* | Wind** | Luminosity | Snow |
|---|---|---|---|---|---|---|---|
| 1777891616 | 11.67° C | 47% | 988.8 hPa | 0 mm | - | - | - |
| 1777891316 | 11.67° C | 46% | 988.8 hPa | 0 mm | - | - | - |
| 1777891016 | 11.67° C | 47% | 988.5 hPa | 0 mm | - | - | - |
| 1777890716 | 12.22° C | 46% | 988.5 hPa | 0 mm | - | - | - |
| 1777890416 | 12.22° C | 45% | 988.5 hPa | 0 mm | - | - | - |
| 1777890116 | 12.22° C | 43% | 989 hPa | 0 mm | - | - | - |
| 1777889816 | 12.22° C | 44% | 989 hPa | 0 mm | - | - | - |
| 1777889516 | 12.22° C | 45% | 989 hPa | 0 mm | - | - | - |
| 1777889216 | 12.22° C | 43% | 988.8 hPa | 0 mm | - | - | - |
| 1777888916 | 12.78° C | 45% | 988.8 hPa | 0 mm | - | - | - |
| 1777888616 | 12.78° C | 44% | 988.8 hPa | 0 mm | - | - | - |
| 1777888316 | 12.78° C | 41% | 988.5 hPa | 0 mm | - | - | - |
| 1777888016 | 12.78° C | 42% | 988.5 hPa | 0 mm | - | - | - |
| 1777887716 | 12.78° C | 42% | 988.5 hPa | 0 mm | - | - | - |
| 1777887416 | 13.33° C | 41% | 988.4 hPa | 0 mm | - | - | - |
| 1777887116 | 13.33° C | 42% | 988.4 hPa | 0 mm | - | - | - |
| 1777886816 | 13.33° C | 42% | 988.4 hPa | 0 mm | - | - | - |
| 1777886516 | 13.33° C | 41% | 988.6 hPa | 0 mm | - | - | - |
| 1777886216 | 13.33° C | 42% | 988.6 hPa | 0 mm | - | - | - |
| 1777885917 | 13.33° C | 42% | 988.6 hPa | 0 mm | - | - | - |
| 1777885616 | 13.33° C | 40% | 988.5 hPa | 0 mm | - | - | - |
| 1777885316 | 13.33° C | 40% | 988.5 hPa | 0 mm | - | - | - |
| 1777885016 | 13.33° C | 41% | 988.5 hPa | 0 mm | - | - | - |
| 1777884716 | 13.33° C | 41% | 988.6 hPa | 0 mm | - | - | - |
| 1777884416 | 13.33° C | 42% | 988.6 hPa | 0 mm | - | - | - |
* Rain latest hour (hover to see other rain measurements)
** Current wind speed in m/s (hover to see current wind gust speed)